[[{"header":{"parameterUnit":"m.s-1","parameterCategory":1,"la1":30.2991,"la2":30.254,"lo1":-89.0895,"lo2":-89.0444,"dy":0.0017,"dx":0.0017,"nx":28,"ny":28,"refTime":"2026-01-29T03:00:00:Z","depth":0,"parameterNumber":2,"parameterNumberName":"U-component_of_WINDS"},"data":[0,0,0,0,0,0,0,0,0,0,0,0,0,0,0,0,0,0,0,0,0,0,0,0,0,0,0,0,0,0,0,0,0,0,0,0,0,0,0,0,0,0,0,0,0,0,0,0,0,0,0,0,0,0,0,0,0,0,-3.477,-3.4771,0,-3.4809,-3.4809,-3.481,-3.4721,-3.4718,-3.4715,-3.4713,-3.4751,-3.4755,-3.4759,0,0,0,0,0,0,0,0,0,0,0,0,0,-3.4618,-3.4622,-3.477,-3.4771,-3.4771,-3.4809,-3.4809,-3.481,-3.4722,-3.4718,-3.4715,-3.4711,-3.475,-3.4755,-3.4759,0,0,0,0,0,0,0,0,0,0,0,0,0,-3.4673,-3.4623,-3.477,-3.4732,-3.4729,-3.4809,-3.4809,-3.481,-3.4722,-3.4718,-3.4714,-3.471,-3.4749,-3.4754,-3.476,-3.4878,0,0,-3.4776,-3.4779,0,0,0,0,0,0,0,0,-3.467,-3.4679,-3.4737,-3.4734,-3.4731,-3.4756,-3.477,-3.4833,-3.4723,-3.4725,-3.4713,-3.4708,-3.4756,-3.4761,-3.4777,-3.488,-3.4882,-3.4777,-3.478,-3.4783,-3.4784,0,0,0,0,0,0,0,-3.4667,-3.4677,-3.4785,-3.4738,-3.4734,-3.4712,-3.4715,-3.4781,-3.4764,-3.4724,-3.4718,-3.4724,-3.4754,-3.4772,-3.4778,-3.4882,-3.4777,-3.4782,-3.4785,-3.4787,-3.5083,-3.5088,0,0,0,0,0,0,-3.4668,-3.4674,-3.4784,-3.4787,-3.469,-3.4718,-3.4722,-3.4752,-3.4763,-3.476,-3.4727,-3.4719,-3.4765,-3.4771,-3.4779,-3.4917,-3.4782,-3.4788,-3.4791,-3.5079,-3.5084,-3.5089,0,0,0,0,0,0,-3.4665,-3.4679,-3.4783,-3.4729,-3.474,-3.4725,-3.476,-3.4755,-3.4773,-3.4765,-3.4761,-3.475,-3.4762,-3.4771,-3.4854,-3.4918,-3.479,-3.4795,-3.5073,-3.508,-3.5087,-3.5197,0,0,0,0,0,0,-3.4661,-3.4678,-3.4724,-3.473,-3.4744,-3.4858,-3.4764,-3.4759,-3.4783,-3.4773,-3.4785,-3.4783,-3.4759,-3.4846,-3.486,-3.4923,-3.4799,-3.5068,-3.5076,-3.5085,-3.5188,-3.5207,-3.5223,0,0,0,0,0,-3.4656,-3.4753,-3.4726,-3.474,-3.48,-3.4862,-3.4869,-3.4841,-3.4789,-3.4834,-3.4828,-3.4782,-3.4909,-3.4856,-3.487,-3.4936,-3.5063,-3.5074,-3.5084,-3.518,-3.5203,-3.5223,0,0,0,0,0,0,-3.4754,-3.4753,-3.4724,-3.4826,-3.4845,-3.4847,-3.4903,-3.4867,-3.49,-3.4889,-3.4852,-3.4855,-3.4945,-3.4949,-3.489,-3.5051,-3.4977,-3.4991,-3.5045,-3.5067,-3.5085,-3.5082,-3.4804,0,0,0,0,0,-3.4788,-3.4838,-3.4835,-3.4926,-3.4937,-3.4919,-3.4945,-3.4921,-3.4938,-3.4946,-3.4946,-3.4965,-3.5008,-3.5038,-3.5078,-3.5188,-3.5188,-3.524,-3.5258,-3.5273,-3.5285,-3.5342,-3.5364,-3.5123,-3.5123,-3.5123,0,0,-3.4857,-3.4863,-3.4898,-3.4946,-3.4957,-3.501,-3.4926,-3.4986,-3.5024,-3.4955,-3.5033,-3.5034,-3.5052,-3.5149,-3.5192,-3.5155,-3.5351,-3.5286,-3.5298,-3.5301,-3.5355,-3.5378,-3.5398,-3.513,-3.5129,-3.5128,0,0,-3.5011,-3.5022,-3.5098,-3.5111,-3.513,-3.5117,-3.5136,-3.5143,-3.5142,-3.522,-3.5168,-3.5213,-3.529,-3.5304,-3.5322,-3.5481,-3.544,-3.5495,-3.5588,-3.5644,-3.5663,-3.568,-3.5736,-3.5756,-3.5507,-3.5508,-3.5508,0,-3.5096,-3.5174,-3.5141,-3.5205,-3.5227,-3.5167,-3.5243,-3.5257,-3.5288,-3.5305,-3.5263,-3.5357,-3.5365,-3.5464,-3.5502,-3.5519,-3.5538,-3.5494,-3.5663,-3.568,-3.5695,-3.5747,-3.5769,-3.5514,-3.5513,-3.5513,-3.5512,0,-3.5276,-3.5331,-3.539,-3.5421,-3.545,-3.552,-3.5497,-3.553,-3.5504,-3.5495,-3.5575,-3.5583,-3.5622,-3.5644,-3.5619,-3.574,-3.5716,-3.567,-3.5595,-3.5725,-3.5774,-3.5794,-3.5524,-3.5521,-3.5519,-3.5518,0,0,-3.5493,-3.5505,-3.5527,-3.554,-3.5557,-3.5598,-3.5664,-3.5704,-3.5732,-3.5755,-3.5809,-3.5875,-3.5832,-3.5852,-3.5828,-3.5877,-3.6002,-3.5824,-3.5824,-3.5856,-3.6133,-3.6168,-3.6192,-3.5974,-3.5978,-3.5981,-3.6131,0,-3.5644,-3.5759,-3.5731,-3.5844,-3.5894,-3.5837,-3.5895,-3.5911,-3.5905,-3.5945,-3.5938,-3.5985,-3.5925,-3.5936,-3.5983,-3.5977,-3.6057,-3.5966,-3.6023,-3.6026,-3.602,-3.6217,-3.6254,-3.6395,-3.615,-3.6154,-3.6156,0,-3.5837,-3.5867,-3.5985,-3.5992,-3.6012,-3.6065,-3.6098,-3.6138,-3.6154,-3.6146,-3.6168,-3.6134,-3.6199,-3.6124,-3.6212,-3.6151,-3.6173,-3.6173,-3.6178,-3.6181,-3.6098,-3.6225,-3.644,-3.6461,-3.6186,-3.6183,-3.6181,0,-3.5982,-3.6053,-3.6132,-3.6145,-3.6156,-3.6194,-3.62,-3.6212,-3.6237,-3.6266,-3.6281,-3.6317,-3.6337,-3.6365,-3.6342,-3.629,-3.6433,-3.6357,-3.6427,-3.6428,-3.6459,-3.6458,-3.668,-3.6476,-3.6475,-3.6475,-3.6474,0,-3.6154,-3.6228,-3.6197,-3.6246,-3.6327,-3.6295,-3.6376,-3.6375,-3.6386,-3.6433,-3.6387,-3.6432,-3.6398,-3.644,-3.6422,-3.6496,-3.6506,-3.65,-3.6495,-3.6504,-3.6505,-3.6517,-3.6507,-3.648,-3.6479,-3.6478,-3.6477,0,-3.6329,-3.6312,-3.6395,-3.6398,-3.64,-3.646,-3.6462,-3.6507,-3.6497,-3.6557,-3.6569,-3.6554,-3.6601,-3.658,-3.6629,-3.6617,-3.6713,-3.6694,-3.6708,-3.6702,-3.6774,-3.6767,-3.7011,-3.7041,-3.6819,-3.6821,-3.6823,0,-3.644,-3.6495,-3.6504,-3.6533,-3.6542,-3.6589,-3.6614,-3.6584,-3.6612,-3.6634,-3.6676,-3.6719,-3.6751,-3.6829,-3.6821,-3.6858,-3.684,-3.6923,-3.6845,-3.6853,-3.684,-3.6836,-3.6841,-3.6938,-3.6941,-3.6943,-3.6945,0,-3.6637,-3.6625,-3.6664,-3.6699,-3.6731,-3.6757,-3.6779,-3.6805,-3.6775,-3.6809,-3.6857,-3.6882,-3.6932,-3.6975,-3.7007,-3.7012,-3.6974,-3.6969,-3.6987,-3.6997,-3.7002,-3.6999,-3.6749,-3.6963,-3.6962,-3.696,-3.6959,-3.6958,-3.6782,-3.6829,-3.6842,-3.6886,-3.69,-3.6922,-3.6963,-3.6959,-3.6998,-3.7036,-3.7016,-3.7071,-3.7085,-3.7125,-3.7135,-3.7177,-3.7144,-3.7171,-3.7177,-3.7184,-3.7193,-3.6996,-3.7183,-3.7182,-3.7182,-3.7181,-3.7181,0,-3.6976,-3.6982,-3.7023,-3.7055,-3.709,-3.7051,-3.7073,-3.7104,-3.7153,-3.717,-3.7202,-3.7256,-3.7297,-3.7293,-3.7331,-3.7365,-3.7348,-3.7376,-3.7372,-3.7374,-3.7221,-3.7201,-3.7389,-3.7389,-3.7389,-3.7389,-3.7389,-3.7388,-3.7081,-3.7157,-3.7147,-3.7229,-3.7234,-3.7288,-3.7304,-3.7323,-3.7336,-3.7398,-3.7432,-3.7429,-3.7437,-3.7475,-3.751,-3.7508,-3.7523,-3.7557,-3.7548,-3.7405,-3.7385,-3.7365,-3.7346,-3.7561,-3.7562,-3.7697,-3.7699,-3.77]},{"header":{"parameterUnit":"m.s-1","parameterCategory":1,"la1":30.2991,"la2":30.254,"lo1":-89.0895,"lo2":-89.0444,"dy":0.0017,"dx":0.0017,"nx":28,"ny":28,"refTime":"2026-01-29T03:00:00:Z","depth":0,"parameterNumber":3,"parameterNumberName":"V-component_of_WINDS"},"data":[0,0,0,0,0,0,0,0,0,0,0,0,0,0,0,0,0,0,0,0,0,0,0,0,0,0,0,0,0,0,0,0,0,0,0,0,0,0,0,0,0,0,0,0,0,0,0,0,0,0,0,0,0,0,0,0,0,0,-1.2239,-1.2239,0,-1.2216,-1.2216,-1.2216,-1.2195,-1.2195,-1.2195,-1.2195,-1.2171,-1.217,-1.217,0,0,0,0,0,0,0,0,0,0,0,0,0,-1.2265,-1.2264,-1.2239,-1.2239,-1.2239,-1.2216,-1.2216,-1.2216,-1.2195,-1.2195,-1.2195,-1.2194,-1.2171,-1.2171,-1.217,0,0,0,0,0,0,0,0,0,0,0,0,0,-1.2249,-1.2264,-1.2239,-1.2226,-1.2224,-1.2216,-1.2216,-1.2216,-1.2195,-1.2195,-1.2195,-1.2194,-1.2171,-1.2171,-1.217,-1.2173,0,0,-1.2168,-1.2168,0,0,0,0,0,0,0,0,-1.225,-1.2248,-1.2228,-1.2227,-1.2225,-1.2208,-1.2216,-1.2201,-1.2195,-1.2206,-1.2195,-1.2194,-1.2184,-1.2182,-1.2178,-1.2172,-1.2171,-1.2168,-1.2168,-1.2167,-1.2167,0,0,0,0,0,0,0,-1.2251,-1.2249,-1.223,-1.2228,-1.2226,-1.2221,-1.2218,-1.2213,-1.2197,-1.2205,-1.2204,-1.2201,-1.2183,-1.2179,-1.2178,-1.2171,-1.2168,-1.2168,-1.2167,-1.2167,-1.2164,-1.2164,0,0,0,0,0,0,-1.2254,-1.225,-1.2231,-1.2229,-1.2237,-1.222,-1.2217,-1.2214,-1.2197,-1.2194,-1.2202,-1.2201,-1.218,-1.2178,-1.2177,-1.2178,-1.2167,-1.2167,-1.2166,-1.2164,-1.2164,-1.2165,0,0,0,0,0,0,-1.2255,-1.2253,-1.2232,-1.2239,-1.2236,-1.222,-1.2217,-1.2214,-1.221,-1.2194,-1.2191,-1.2201,-1.218,-1.2178,-1.2174,-1.2177,-1.2167,-1.2166,-1.2164,-1.2164,-1.2164,-1.2182,0,0,0,0,0,0,-1.2256,-1.2253,-1.2255,-1.2239,-1.2236,-1.223,-1.2217,-1.2214,-1.2209,-1.2207,-1.2193,-1.219,-1.2179,-1.2175,-1.2173,-1.2176,-1.2166,-1.2163,-1.2164,-1.2164,-1.2181,-1.2183,-1.2185,0,0,0,0,0,-1.2257,-1.2261,-1.2255,-1.2253,-1.2237,-1.223,-1.2228,-1.2215,-1.2209,-1.221,-1.22,-1.2191,-1.2177,-1.2175,-1.2173,-1.2176,-1.2163,-1.2164,-1.2164,-1.2181,-1.2183,-1.2185,0,0,0,0,0,0,-1.2277,-1.2259,-1.2252,-1.2251,-1.2242,-1.2227,-1.2228,-1.2219,-1.2211,-1.221,-1.2195,-1.2192,-1.2189,-1.2182,-1.218,-1.2177,-1.2169,-1.2169,-1.2182,-1.2184,-1.2186,-1.2187,-1.2165,0,0,0,0,0,-1.2282,-1.2278,-1.2262,-1.2263,-1.2259,-1.2244,-1.224,-1.2231,-1.2221,-1.2217,-1.2207,-1.2198,-1.2191,-1.2187,-1.218,-1.218,-1.2176,-1.2181,-1.2183,-1.2184,-1.2185,-1.2182,-1.2184,-1.2167,-1.2167,-1.2167,0,0,-1.2291,-1.228,-1.2279,-1.2267,-1.2259,-1.2254,-1.2241,-1.2237,-1.2233,-1.2217,-1.2212,-1.2204,-1.2193,-1.219,-1.2189,-1.2184,-1.2188,-1.2185,-1.2187,-1.2186,-1.2183,-1.2185,-1.2186,-1.2167,-1.2167,-1.2167,0,0,-1.2306,-1.2298,-1.2297,-1.2289,-1.2277,-1.2267,-1.2266,-1.2252,-1.2245,-1.2241,-1.2228,-1.2223,-1.2212,-1.2204,-1.2198,-1.2208,-1.2198,-1.2206,-1.2216,-1.2214,-1.2215,-1.2216,-1.2218,-1.2219,-1.2207,-1.2207,-1.2207,0,-1.2319,-1.2312,-1.2298,-1.2294,-1.2289,-1.2273,-1.2272,-1.2264,-1.2251,-1.2247,-1.2242,-1.2227,-1.2218,-1.2213,-1.2215,-1.2212,-1.221,-1.2208,-1.2216,-1.2217,-1.2218,-1.222,-1.2221,-1.2208,-1.2207,-1.2207,-1.2207,0,-1.2328,-1.2323,-1.2324,-1.231,-1.2305,-1.2302,-1.2287,-1.2283,-1.2274,-1.2265,-1.2259,-1.2248,-1.2238,-1.2236,-1.2227,-1.2229,-1.2226,-1.2219,-1.221,-1.222,-1.2222,-1.2223,-1.2209,-1.2209,-1.2208,-1.2208,0,0,-1.2355,-1.2333,-1.2334,-1.2327,-1.2311,-1.2307,-1.2303,-1.2293,-1.2289,-1.228,-1.2276,-1.2266,-1.2259,-1.2253,-1.2243,-1.2241,-1.2248,-1.2234,-1.2233,-1.2236,-1.2247,-1.2252,-1.2254,-1.2241,-1.2242,-1.2242,-1.2248,0,-1.2367,-1.2359,-1.2346,-1.2343,-1.2337,-1.2321,-1.2318,-1.2308,-1.2298,-1.2292,-1.2281,-1.2274,-1.2265,-1.2261,-1.2259,-1.2248,-1.225,-1.2247,-1.2237,-1.2237,-1.224,-1.2255,-1.2261,-1.2267,-1.2248,-1.2249,-1.2249,0,-1.2379,-1.237,-1.2366,-1.2349,-1.2347,-1.2344,-1.2332,-1.2327,-1.2314,-1.2307,-1.2299,-1.2288,-1.2283,-1.2275,-1.2266,-1.2265,-1.226,-1.2253,-1.2253,-1.2251,-1.2243,-1.2253,-1.2269,-1.227,-1.225,-1.225,-1.225,0,-1.2398,-1.2385,-1.238,-1.2375,-1.2356,-1.2354,-1.2346,-1.2333,-1.2328,-1.2318,-1.2313,-1.2303,-1.2297,-1.2289,-1.2275,-1.2271,-1.2268,-1.2259,-1.2261,-1.2261,-1.2261,-1.2261,-1.2276,-1.2259,-1.2259,-1.2259,-1.2259,0,-1.2412,-1.241,-1.2389,-1.2386,-1.2383,-1.2367,-1.2364,-1.2354,-1.2343,-1.2337,-1.2323,-1.2318,-1.23,-1.2293,-1.2282,-1.2276,-1.2274,-1.2267,-1.2264,-1.2268,-1.2269,-1.2264,-1.2263,-1.2259,-1.2259,-1.2259,-1.2259,0,-1.2433,-1.2419,-1.2413,-1.2395,-1.239,-1.2388,-1.2373,-1.2369,-1.2358,-1.2351,-1.2348,-1.2331,-1.2322,-1.2307,-1.2293,-1.2286,-1.2281,-1.2277,-1.2285,-1.2283,-1.2286,-1.2286,-1.2298,-1.2298,-1.2282,-1.2282,-1.2282,0,-1.2443,-1.244,-1.2422,-1.2417,-1.2409,-1.2402,-1.2395,-1.238,-1.2373,-1.2358,-1.2356,-1.2345,-1.2336,-1.2321,-1.2307,-1.2296,-1.2291,-1.2296,-1.2289,-1.2293,-1.229,-1.229,-1.2289,-1.2298,-1.2298,-1.2298,-1.2298,0,-1.246,-1.2453,-1.2445,-1.2433,-1.2426,-1.2416,-1.2406,-1.2403,-1.2384,-1.2378,-1.2368,-1.236,-1.2346,-1.2335,-1.2322,-1.2313,-1.2302,-1.23,-1.23,-1.2304,-1.2309,-1.2305,-1.2289,-1.23,-1.23,-1.23,-1.23,-1.23,-1.2475,-1.2472,-1.2458,-1.2449,-1.2439,-1.2429,-1.2424,-1.2412,-1.2404,-1.239,-1.2381,-1.2371,-1.2357,-1.2339,-1.233,-1.2322,-1.2317,-1.2317,-1.2317,-1.2317,-1.2318,-1.231,-1.2319,-1.2319,-1.2319,-1.2319,-1.2319,0,-1.2491,-1.2481,-1.2473,-1.2458,-1.2451,-1.2441,-1.2429,-1.2423,-1.2414,-1.2402,-1.2393,-1.238,-1.2369,-1.2354,-1.2342,-1.2338,-1.2332,-1.2335,-1.2335,-1.2333,-1.2323,-1.2324,-1.2339,-1.2339,-1.2339,-1.2339,-1.2339,-1.2339,-1.2499,-1.2493,-1.2483,-1.2472,-1.2461,-1.2452,-1.2445,-1.2436,-1.2426,-1.2412,-1.2403,-1.2393,-1.2379,-1.2366,-1.2355,-1.235,-1.2346,-1.235,-1.2344,-1.2336,-1.2334,-1.2332,-1.2333,-1.235,-1.235,-1.2355,-1.2355,-1.2355]}]]